全球星 M035星 (GLOBALSTAR M035)

导读 | 星芒AI

GLOBALSTAR M035 是 Globalstar 卫星通信公司部署的一颗低轨移动通信卫星,属于第二代星座系统。该卫星运行在约 1414 公里的近地轨道,主要用于提供全球范围内的语音和数据通信服务,特别是在偏远地区和海上。M035 采用先进通信技术,支持手持终端和移动平台的连接,增强了系统的可靠性和覆盖能力,是全球卫星通信网络的重要组成部分。

基本信息
目录编号:
25851
目录名称:
GLOBALSTAR M035
国际标识:
1999-037A
轨道中心:
EARTH
卫星名称:
全球星 M035星
卫星全名:
全球星 M035星 (GLOBALSTAR M035)
卫星状态:
在轨 (已飞行9656 天)
发射日期:
1999-07-10 UTC
国别 :
(GLOB)
星等 :
--
轨道信息
数据来源 国际轨道数据 AOE轨道数据
星历时间 2025-12-15T17:05:09+0800
16小时前
查看轨道信息
2025-12-15T21:00:00+0800
12小时前
查看轨道信息
半长轴 8516.886km 8516.985km
偏心率 0.0013562 0.0013885
轨道倾角 51.998° 51.994°
近地点辐角 275.009° 274.722°
升交点赤经 10.889° 10.525°
平近点角 97.661° 26.688°
近地点 2127.2km 2127.024km
远地点 2150.302km 2150.676km
周期 130.371分钟 130.373分钟
每日圈数 11.045402 11.04521
详细信息
固有亮度:
5
最大亮度:
7.9
平衡模式:
三轴稳定
覆盖范围:
全球
运营商:
全球星公司
运营商所在国:
美国
使用方式:
暂无
卫星简介
全球星星座由48颗卫星加8颗备份星组成。这些卫星分布在8个倾角为52度的圆形轨道平面上,每个轨道平面6颗卫星,另有1 颗备用星。轨道高度约为1414km,传输时延和处理时延小于300ms,整个系统的覆盖区为南北纬70度以内的地区。该卫星已退役。
2D轨道图
3D轨道图
轨道高度分析图
轨道倾角分析图
轨道综合分析图
查看轨道综合分析图